Meteo Giornale » Osservazioni meteo Svizzera » Locarno

ore: 02:50 - Osservazioni Meteo Locarno
Lat. 46° 10' N Lon. 8° 53' E Alt. 600 metri s.l.m.

nuvoloso Europe/Zurich

17 °C

Nuvoloso

Temp. 24 Ore

14 °C

27 °C

Nord

3.7 Km/h

Dew point 14 °C

Umidità 82 %

Visibilità  10 Km

Il sole sorge alle ore 06:11

Il sole tramonta alle ore 20:49

Data e Ora Cielo e Fenomeni T °C DP °C Um. % Pres. hPa Vis. km Vento km/h
Oggi h: 02:50 nuvoloso Nuvoloso 17 14 82 1008 10 N 3.7
Oggi h: 02:20 molto_nuvoloso Molto Nuvoloso 17 15 88 1008 10 NE 7.4
Oggi h: 01:50 nuvoloso Nuvoloso 17 15 88 1008 10 NE 9.3
Oggi h: 01:20 sereno Sereno 17 15 88 1008 10 N 5.5
Oggi h: 00:50 poco_nuvoloso Poco Nuvoloso 17 15 88 1008 10 N 0
Oggi h: 00:20 sereno Sereno 17 16 93 1008 10 N 1.8
Ieri h: 23:50 poco_nuvoloso Poco Nuvoloso 17 16 93 1008 10 N 0
Ieri h: 23:20 poco_nuvoloso Poco Nuvoloso 19 16 82 1008 10 N 0
Ieri h: 22:50 sereno Sereno 20 15 72 1007 10 N 1.8
Ieri h: 22:20 sereno Sereno 20 16 77 1007 10 N 3.7
Ieri h: 21:50 nuvoloso Nuvoloso 20 17 82 1007 10 N 0
Ieri h: 21:20 sereno Sereno 20 17 82 1007 3 N 0
Ieri h: 20:50 sereno Sereno 22 18 78 1006 10 N 3.7
Ieri h: 20:20 sereno Sereno 23 18 73 1006 10 N 3.7
Ieri h: 19:50 sereno Sereno 25 17 61 1005 10 N 3.7
Ieri h: 19:20 sereno Sereno 26 16 54 1005 10 N 3.7
Ieri h: 18:20 sereno Sereno 27 17 54 1005 10 N 3.7
Ieri h: 17:50 poco_nuvoloso Poco Nuvoloso 27 16 50 1006 10 N 5.5
Ieri h: 17:20 sereno Sereno 26 15 50 1006 10 N 3.7
Ieri h: 16:50 poco_nuvoloso Poco Nuvoloso 26 16 54 1006 10 O/SO 7.4
Ieri h: 16:20 poco_nuvoloso Poco Nuvoloso 26 16 54 1006 10 O 7.4
Ieri h: 15:50 poco_nuvoloso Poco Nuvoloso 25 15 53 1006 10 N 5.5
Ieri h: 15:20 poco_nuvoloso Poco Nuvoloso 25 14 50 1006 10 O 7.4
Ieri h: 14:50 poco_nuvoloso Poco Nuvoloso 25 16 57 1006 10 O/SO 9.3
Ieri h: 14:20 nuvoloso Nuvoloso 23 16 64 1007 10 O 11.1
Ieri h: 13:50 poco_nuvoloso Poco Nuvoloso 23 17 68 1007 10 O/SO 9.3
Ieri h: 13:20 poco_nuvoloso Poco Nuvoloso 24 18 69 1007 10 O/SO 7.4
Ieri h: 12:50 nuvoloso Nuvoloso 23 17 68 1007 10 N 5.5
Ieri h: 12:20 sereno Sereno 21 17 77 1008 10 O/SO 9.3
Ieri h: 11:50 poco_nuvoloso Poco Nuvoloso 22 15 64 1008 10 N 3.7
Ieri h: 11:20 nuvoloso Nuvoloso 21 15 68 1008 10 N 3.7
Ieri h: 10:50 molto_nuvoloso Molto Nuvoloso 20 16 77 1008 10 E 11.1
Ieri h: 10:20 nuvoloso Nuvoloso 20 15 72 1008 10 E 7.4
Ieri h: 09:50 nuvoloso Nuvoloso 19 16 82 1009 10 N 5.5
Ieri h: 09:20 sereno Sereno 18 15 82 1009 10 N 5.5
Ieri h: 08:50 sereno Sereno 17 14 82 1009 10 N 5.5
Ieri h: 08:20 sereno Sereno 16 15 93 1009 10 E/NE 9.3
Ieri h: 07:50 poco_nuvoloso Poco Nuvoloso 16 15 93 1009 10 N 5.5
Ieri h: 07:20 sereno Sereno 15 15 100 1009 10 N 5.5
Ieri h: 06:20 sereno Sereno 14 14 100 1009 10 N 5.5
Ieri h: 05:50 sereno Sereno 15 15 100 1009 10 E/NE 7.4
Ieri h: 05:20 poco_nuvoloso Poco Nuvoloso 15 15 100 1009 10 NE 7.4
Ieri h: 04:50 nuvoloso Nuvoloso 15 15 100 1009 10 E 9.3
Ieri h: 04:20 nuvoloso Nuvoloso 16 16 100 1009 10 E 11.1
Ieri h: 03:50 nuvoloso Nuvoloso 16 16 100 1009 10 E/NE 9.3